Regional Weather Roundup
Issued by NWS

Home | Current Version | Previous Version | Text Only | Print | Product List | Glossary On
Versions: 1 2 3 4 5 6 7 8 9 10 11 12 13 14 15 16 17 18 19 20 21 22 23 24 25 26 27 28 29 30 31 32 33 34 35 36 37 38 39 40 41 42 43 44 45 46 47 48 49 50
000
ASUS46 KLOX 030913
RWRCA

SOUTHERN CALIFORNIA WEATHER ROUNDUP
NATIONAL WEATHER SERVICE OXNARD CALIFORNIA
200 AM PDT THU SEP 03 2015

NOTE: "FAIR" INDICATES FEW OR NO CLOUDS BELOW 12,000 FEET WITH NO
SIGNIFICANT WEATHER AND/OR OBSTRUCTIONS TO VISIBILITY.

  -  STATIONS PRECEEDED BY AN ASTERISK (*) ARE NOT NWS OR FAA
     STATIONS AND ARE NOT SUBJECT TO NWS AND FAA QUALITY CONTROL.

CAZ041-042-087-031000-
LA AND ORANGE COUNTY COASTAL AREAS


CITY           SKY/WX    TMP DP  RH WIND       PRES   REMARKS
L.A. DOWNTOWN  PTCLDY    67  59  75 CALM      29.91F
L.A. AIRPORT   MOCLDY    66  59  77 CALM      29.92F
LONG BEACH     NOT AVBL

CITY           SKY/WX    TMP DP  RH WIND       PRES   REMARKS
AVALON           N/A     63 N/A N/A MISG        N/A
FULLERTON      CLOUDY    69  60  73 SE6       29.91F
*GETTY CENTER    N/A     61  59  94 S3          N/A
HAWTHORNE      CLOUDY    68  59  73 CALM      29.92F
*LOS ALAMITOS  CLOUDY    68  61  78 E3        29.91F
*REDONDO BEACH   N/A     66  59  78 CALM      29.92F
SANTA ANA      CLEAR     66  58  75 SE5       29.92F
STA MONICA APT CLOUDY    67  60  78 CALM      29.92F
*STA MON PIER    N/A     68  63  84 CALM      29.91
*UCLA            N/A     66  59  77 CALM      29.89F

$$

CAZ547-548-048-031000-
LA COUNTY VALLEYS AND INLAND EMPIRE


CITY           SKY/WX    TMP DP  RH WIND       PRES   REMARKS
BURBANK        CLOUDY    68  59  73 S3        29.92F
VAN NUYS       CLOUDY    67  59  75 S6        29.92F

CITY           SKY/WX    TMP DP  RH WIND       PRES   REMARKS
CORONA AIRPORT SUNNY     59  56  89 CALM      29.93F
*CHATSWORTH      N/A     65  58  80 CALM      29.91F
CHINO          CLEAR     64  58  80 CALM      29.94F
MARCH AFB      CLEAR     61  59  92 W2        29.94F
*NORTHRIDGE      N/A     66  57  72 SE3         N/A
ONTARIO        PTCLDY    64  58  80 SW5       29.93F
*PASADENA        N/A     66  61  82 CALM        N/A
RIVERSIDE      CLEAR     65  59  81 W3        29.93F
SAN BERNARDINO NOT AVBL
*SAN GABRIEL     N/A     67  61  79 SE3       29.98F
*WHITEMAN AP   NOT AVBL
*WOODLAND HILL   N/A     66  57  72 S1          N/A

$$

CAZ054-055-031000-
LA AND SAN BERNARDINO COUNTY MOUNTAINS


CITY           SKY/WX    TMP DP  RH WIND       PRES   REMARKS
*BIG BEAR AIRP MOSUNNY   55  30  38 CALM      30.15F
SANDBERG       MOCLDY    58  41  53 SW9       30.05F
*WARM SPRINGS    N/A     58  42  54 SW8         N/A

$$

CAZ028-029-059-060-099-031000-
ANTELOPE VALLEY AND SURROUNDING AREAS


CITY           SKY/WX    TMP DP  RH WIND       PRES   REMARKS
LANCASTER      PTCLDY    67  31  26 NW6       29.93F
PALMDALE       CLEAR     64  43  46 W10       29.93F
*POPPY PARK      N/A     66  24  20 W8G23       N/A

CITY           SKY/WX    TMP DP  RH WIND       PRES   REMARKS
29 PALMS       CLEAR     77  40  26 S8        29.92F
BARSTOW/DAGGET CLEAR     72  27  18 W14       29.89S
BISHOP         CLEAR     66  30  26 S7        29.90S
CHINA LAKE     CLEAR     74  38  27 S14       29.85F
EDWARDS AFB    CLEAR     66  28  23 S8        29.89F
MOJAVE         CLEAR     68  41  37 SW13      29.92F
NEEDLES        CLOUDY    90  44  20 SW8       29.78S
VICTORVILLE    PTCLDY    64  48  55 CALM      29.94F

$$

CAZ039-040-031000-
VENTURA AND SANTA BARBARA COUNTY COAST


CITY           SKY/WX    TMP DP  RH WIND       PRES   REMARKS
CAMARILLO      MOCLDY    67  58  72 W3        29.91F
NWS OXNARD       N/A     65  58  78 CALM      29.91S
OXNARD AIRPORT PTCLDY    66  59  78 NE3       29.91F
*POINT MUGU    PTCLDY    69  60  73 E3        29.91F
SBA APT/GOLETA CLOUDY    63  56  78 CALM      29.90F
*SANTA BARBARA   N/A     69  58  65 CALM      29.98F
*VENTURA         N/A     65  58  79 CALM      29.53S

$$

CAZ044-045-031000-
VENTURA COUNTY VALLEYS


CITY           SKY/WX    TMP DP  RH WIND       PRES   REMARKS
*SIMI VALLEY     N/A     62  58  87 CALM      29.87F
*OJAI            N/A     58  55  88 CALM      29.86F
*FILLMORE        N/A     62  57  84 CALM      29.82S

$$

CAZ053-031000-
VENTURA COUNTY MOUNTAINS


CITY           SKY/WX    TMP DP  RH WIND       PRES   REMARKS
*LOCKWOOD VLY    N/A     43  19  39 CALM        N/A
*ROSE VALLEY     N/A     43  41  93 MISG        N/A

$$

CAZ034-035-036-031000-
CENTRAL COAST AND SANTA YNEZ VALLEY


CITY           SKY/WX    TMP DP  RH WIND       PRES   REMARKS
SAN LUIS OBISP CLEAR     60  55  83 CALM      29.93S
SANTA MARIA    MOCLDY    62  58  86 S6        29.93F

CITY           SKY/WX    TMP DP  RH WIND       PRES   REMARKS
*CAL POLY SLO    N/A     55  55 100 CALM        N/A
*LOMPOC        CLOUDY    64  55  72 NW7       29.95S
*PISMO BEACH     N/A     59  56  90 CALM      29.94R
*SANTA YNEZ    MOCLDY    55  54  94 CALM      29.95S

$$

CAZ037-038-051-031000-
SAN LUIS OBISPO COUNTY INTERIOR AND CUYAMA VALLEY


CITY           SKY/WX    TMP DP  RH WIND       PRES   REMARKS
*CUYAMA          N/A     58  52  78 W1        29.86S
PASO ROBLES    CLEAR     60  55  83 W8        29.93S

$$

CAZ032-033-061-031000-
SOUTHERN DESERTS


CITY           SKY/WX    TMP DP  RH WIND       PRES   REMARKS
BLYTHE         MOCLDY    84  53  34 S7        29.76F
IMPERIAL       CLEAR     83  55  38 CALM      29.74S
PALM SPRINGS   PTCLDY    80  47  31 SW3       29.79F
THERMAL        PTCLDY    83  45  26 N8        29.73S

$$

ELSEWHERE ACROSS THE WESTERN UNITED STATES AND MEXICO


CITY           SKY/WX    TMP DP  RH WIND       PRES   REMARKS
DEATH VALLEY,    N/A     92  28  10 SE7         N/A
DENVER, CO     PTCLDY    67  43  41 SW9       30.01S
GRAND CANYON,  PTCLDY    49  44  83 CALM      30.22F
HONOLULU, HI   PTCLDY    81  75  83 E3        29.89S
KAHULUI, MAUI  CLEAR     77  73  88 SE5       29.91S
LAKE TAHOE, CA MOCLDY    59  37  44 S12G21    30.04F
LAS VEGAS, NV  MOCLDY    85  44  23 S6        29.80S
MAMMOTH LAKES, FAIR      48  34  57 CALM      30.09F
MEXICO CITY, M CLOUDY    59  57  94 CALM      30.30S
PHOENIX, AZ    PTCLDY    87  58  37 NE5       29.82F
PORTLAND, OR   PTCLDY    56  50  80 SW5       29.99S
RENO, NV       MOCLDY    64  36  35 E3        29.93S
SALT LAKE CITY MOCLDY    78  38  23 SE20      29.88R
SAN DIEGO, CA  MOCLDY    69  59  70 CALM      29.94F
SAN FRANCISCO, PTCLDY    61  56  83 W18       29.91F
SAN JOSE, CA   CLEAR     61  53  75 SE3       29.92F
SEATTLE, WA    CLEAR     51  48  89 S5        29.97R
TIJUANA, MEX   MOCLDY    63  55  77 CALM      29.96F

$$

STATION/POSITION TIME  TEMP    WIND        PRES    VSBY  WAVE
                       AIR SEA DIR/SP/G                  HT/PER
                 (UTC) (F)     (DEG/KT/KT) (MB)    (MI)  (FT/S)
POINT ARGUELLO B NOT AVBL
WEST SANTA BARBA 0850   65 67  340/ 12/ 16 1012.2F         7/11
POINT CONCEPTION NOT AVBL
EAST SANTA BARBA 0900   67 71  210/ 10/ 12 1012.8F
SANTA MONICA BAY 0850   66 70  160/  6/  8 1013.1F         3/13



USA.gov is the U.S. government's official web portal to all federal, state and local government web resources and services.